Location: Newton_Old_St_Pauls
(35.6750°N, 81.2580°W)
Time: 19:41:15
(UTC-05:00)

Daily predictions for brighter satellites

Satellite Brightness Start Highest point End
(mag) Time Altitude Azimuth Time Altitude Azimuth Time Altitude Azimuth
Cosmos 44 4.1 18:29:25 10° NNW 18:34:04 35° NE 18:38:52 10° ESE
FENGYUN 3A 3.7 18:31:51 10° SSE 18:37:12 70° ENE 18:42:36 10° N
Cosmos 2227 Rocket 3.1 18:35:02 10° SW 18:40:33 55° WNW 18:46:06 10° NNE
CZ-2C R/B 4.5 18:36:27 10° N 18:40:48 55° WNW 18:45:07 10° SSW
CENTAUR R/B 2.5 18:36:52 10° SSW 18:42:37 69° ESE 18:49:11 10° NE
Cosmos 2233 Rocket 4.1 18:37:23 10° N 18:43:41 85° W 18:49:53 10° S
Cosmos 2237 Rocket 2.4 18:39:11 10° NNW 18:44:49 80° WSW 18:50:26 10° SSE
Cosmos 1378 Rocket 4.4 18:41:56 10° NNE 18:45:50 30° ENE 18:49:43 10° SE
SL-16 R/B 2.5 18:44:08 10° N 18:49:31 43° ENE 18:54:52 10° SE
Cosmos 1633 2.6 18:47:33 10° S 18:51:00 51° E 18:54:28 10° NNE
Shenzhou-11 Module 4.4 18:49:30 10° W 18:51:51 21° SW 18:54:12 10° SSE
MOS 1 4.3 18:47:23 10° SSE 18:53:02 84° ENE 18:58:44 10° NNW
SJ-6B 4.2 18:50:35 10° ESE 18:53:06 17° ENE 18:55:40 10° NNE
Cosmos 2297 Rocket 3.3 18:48:54 10° SW 18:54:20 48° WNW 18:59:49 10° N
Lacrosse 5 2.8 18:50:35 10° NW 18:55:28 50° SW 19:00:20 10° SSE
H-2A R/B 3.0 18:51:53 10° SSE 18:55:38 46° ENE 18:59:24 10° N
Sich 1 Rocket 4.0 18:53:11 10° SSE 18:57:24 41° E 19:01:36 10° NNE
ERS-2 2.7 18:58:13 10° SE 19:01:36 35° ENE 19:04:59 10° N
COSMO-SKYMED 1 4.1 18:58:48 10° N 19:02:51 39° WNW 19:06:52 10° SW
Cosmos 1464 Rocket 4.0 18:57:06 10° N 19:03:06 56° E 19:09:07 10° SSE
GPS 2-05 Rocket1 4.5 19:01:07 10° SSW 19:03:24 18° SSE 19:04:53 14° ESE
Meteor 1-14 Rocket 4.3 19:00:15 10° S 19:06:00 90° W 19:11:56 10° N
Meteor 1-20 Rocket 4.2 19:01:01 10° S 19:06:40 76° E 19:12:28 10° NNE
MOS 1-B Rocket 4.4 19:01:09 10° S 19:07:40 69° WSW 19:13:28 10° NNW
Cosmos 158 Rocket 4.1 19:03:52 10° SSW 19:08:45 73° WNW 19:13:38 10° NNE
CZ-4 R/B 4.4 19:06:31 10° SW 19:09:33 20° W 19:12:32 10° NW
Okean 1 3.8 19:06:25 10° NNE 19:10:07 36° E 19:13:46 10° SSE
Iridium 4 Rocket 3.3 19:06:08 10° N 19:10:47 52° E 19:15:03 10° SSE
Okean 2 Rocket 4.0 19:08:28 10° SE 19:12:04 26° E 19:15:42 10° NNE
Cosmos 1452 Rocket 3.5 19:08:00 10° NNW 19:13:18 87° ENE 19:18:32 10° SSE
BREEZE-M DEB (TANK) 3.7 19:12:45 10° N 19:14:18 15° NNE 19:14:37 14° NE
Cosmos 1072 Rocket 4.4 19:08:42 10° N 19:14:57 78° E 19:21:15 10° S
Cosmos 1048 Rocket 4.0 19:09:40 10° SSW 19:15:00 81° ESE 19:20:19 10° NNE
CZ-2D R/B 4.2 19:12:22 12° SE 19:15:17 27° ENE 19:18:36 10° NNE
Cosmos 1812 3.2 19:11:33 10° NNW 19:15:24 64° W 19:19:13 10° S
SPOT 3 Rocket 3.8 19:11:45 10° S 19:16:56 74° WSW 19:22:09 10° NNW
Cosmos 2263 Rocket 3.4 19:19:35 10° SSE 19:23:04 20° ESE 19:23:04 20° ESE
Okean 3 3.9 19:20:54 10° NNW 19:25:02 62° W 19:29:09 10° S
Cosmos 1602 3.9 19:22:03 10° SSE 19:25:49 49° E 19:29:35 10° NNE
OAO 2 Rocket 3.2 19:22:26 10° WSW 19:27:23 78° S 19:29:58 28° E
IUS-18 SRM-1 4.3 19:28:59 10° SW 19:30:28 14° S 19:32:12 11° SSE
Meteor 1-18 Rocket 4.2 19:25:40 10° N 19:31:16 85° W 19:36:48 10° S
Cosmos 1908 Rocket 4.3 19:27:06 10° SSW 19:31:29 57° W 19:35:54 10° N
Cosmos 1420 Rocket 4.2 19:27:36 10° NNW 19:32:54 77° WSW 19:38:11 10° S
Cosmos 921 Rocket 3.0 19:29:07 10° N 19:33:35 61° ENE 19:37:59 10° SSE
Cosmos 2034 Rocket 3.9 19:32:53 10° N 19:39:18 81° E 19:45:38 10° S
FREGAT/IRIS 3.3 19:36:33 10° S 19:39:26 52° W 19:42:21 10° NNW
Tiangong 2 2.0 19:38:28 10° WNW 19:41:30 42° SSW 19:42:18 34° S
Cosmos 1437 Rocket 3.1 19:39:33 10° SSW 19:43:34 69° W 19:47:40 10° N
Meteor 2-4 Rocket 4.2 19:38:57 10° N 19:44:16 37° ENE 19:45:18 35° E
Cosmos 2227 4.1 19:38:48 10° SSW 19:44:32 83° ESE 19:50:16 10° NNE
Meteor 1-19 Rocket 4.2 19:39:29 10° N 19:44:55 56° E 19:50:21 10° SSE
Meteor 1-11 Rocket 3.7 19:41:29 10° S 19:46:51 53° E 19:52:21 10° NNE
Cosmos 44 Rocket 3.7 19:43:51 10° NW 19:48:53 66° WSW 19:53:58 10° SSE
ARGOS Delta rocket 3.6 19:44:35 10° NNE 19:49:24 84° ESE 19:53:56 10° S
Cosmos 1816 Rocket 4.4 19:44:19 10° S 19:50:40 80° E 19:57:02 10° N
SeaSat 1 2.5 19:50:15 42° ESE 19:51:31 54° ENE 19:56:20 10° NNW
Cosmos 1634 Rocket 4.3 19:45:55 10° N 19:51:37 38° ENE 19:52:05 38° E
Gbstr 26 Del rocket 2.9 19:50:46 10° WSW 19:54:27 64° NW 19:55:12 50° NNE
Meteor 1-4 Rocket 4.0 19:54:09 10° S 19:55:43 25° S 19:55:43 25° S
USA 215 3.4 19:52:59 15° NE 19:58:36 72° NW 20:05:05 10° SW
Envisat 2.8 19:55:25 10° SSE 20:00:29 84° ENE 20:05:35 10° N
Cosmos 1975 Rocket 3.2 19:57:01 10° N 20:01:27 74° W 20:05:53 10° S
COSMOS 2455 2.7 19:57:09 10° SSW 20:03:05 67° ESE 20:05:36 36° NE
Resurs 01 Rocket 2.7 20:06:03 33° NNE 20:06:03 33° NNE 20:08:38 10° N
Thor Agena Rocket 4.1 20:05:45 10° N 20:10:42 55° WNW 20:15:36 10° SSW
CZ-4C R/B 3.7 20:04:30 10° NNW 20:10:42 30° NE 20:10:42 30° NE
BREEZE-M DEB (TANK) 3.6 20:09:49 10° WSW 20:12:49 64° NW 20:15:23 32° NE
Cosmos 1943 4.1 20:09:30 10° N 20:13:11 33° NNE 20:13:11 33° NNE
Cosmos 494 Rocket 4.0 20:10:19 10° SSW 20:15:32 76° WNW 20:19:03 21° NNE
Cosmos 1110 Rocket 3.9 20:14:12 10° NNW 20:19:15 76° NE 20:19:15 76° NE
USA 267 4.2 20:30:04 32° NNE 20:30:04 32° NNE 20:35:23 10° NNW
SL-16 R/B 4.5 20:29:00 10° NW 20:33:15 22° W 20:37:30 10° SSW
Cosmos 1603 4.4 20:46:49 10° NNW 20:52:03 51° W 20:52:03 51° W
Cosmos 2263 Rocket 3.6 21:01:45 10° SW 21:04:56 31° WSW 21:04:56 31° WSW
CZ-4C R/B 4.3 21:52:27 10° NW 21:55:55 31° NW 21:55:55 31° NW
